Showing default

TIANQI 27, 59911

Orbit data source: Space-Track

TIANQI 27, 59911 is a payload satellite owned by Guodian Gaokeji (CN) in LEO that was launched on Wed, 29 May 2024 UTC via a GUSHENXING 1 launch vehicle from the Yellow Sea Launch Area, China (YSLA). Payload-class satellites include a variety of spacecraft equipped with specific instruments for various scientific and technological missions. These include communications satellites like Starlink; space stations such as the ISS; scientific satellites like the Hubble; Earth observation satellites from companies like Planet Labs, Umbra, and HawkEye 360; GPS; miniature CubeSats for education and research; and military/defense satellites.

Loading next visibility...
Identifier
59911, 2024-102C
Orbit
LEO
Country
Flag of CNCN / PRC
Related business
Manufacturer
Shanghai ASES
Mission
Operational Commercial Communications
Bus & Motor
STARLIGHTB, Unknown motor
Mass
40 kg wet, ~40 kg dry
Launch date (UTC)
2024-05-29 (2 years ago)
Launch vehicle
GUSHENXING 1
Launch site
Yellow Sea Launch Area, China (YSLA)
Object type
Payload
Rocket body
Debris
Shape & HBR
Box, 0.3 m
Radar Cross Section
0.195 m², Medium (>0.1 m² and < 1m²)

Expand to show TLE details & history
Last TLE update: 2 days ago

TLE from 2 days ago
0 TIANQI 27
1 59911U 24102C   26171.47091784  .00000005  00000-0  91429-4 0  9995
2 59911  44.9777 246.8344 0008260 262.8837  97.1056 13.99154855105361
Epoch: 2026-06-20T11:18Z
TLE epoch observation values (Epoch: 2026-06-20T11:18:07.301Z)
Latitude
-0.00004°
Longitude
168.61887°
Altitude
897.468 km
Speed
7.404 km/s
True Right ascension
16h 27m 20s
True Declination
0° 00' 00"
Sunlit
Object was in full shadow at epoch
Visualization orbit readout
Latitude
Unknown
Longitude
Unknown
Altitude
Unknown
Speed
Unknown
Apparent Right ascension
Unknown
Apparent Declination
Unknown
Sunlit
N/A
Visualization observer readout
Local Sidereal Time
21:33:10
Azimuth
Unknown
Elevation
Unknown
Doppler factor
Unknown
Orbital elements
Apogee altitude
904.255 km
Perigee altitude
892.235 km
Semi-major axis
7,276.382 km
Eccentricity
0.00083
Inclination
44.9777°
RAAN
246.8344°
Arg. of periapsis
262.8837°
True anomaly
97.19951°
Mean anomaly
97.1056°
Eccentric anomaly
97.15256°
Mean motion
3.49679 °/min
Orbital period
102.95 mins
BSTAR
0.000091429
Loading maneuver chart data...
Computing Atmospheric mass density...
Loading historical data...
Loading historical data...
Loading historical data...
Loading historical data...
Loading historical data...
Loading historical data...
Loading historical data...
Other satellites on launch #102 in the year 2024 (2024-05-29 UTC)

Documentation

Showing up to 5 results
|